www.pogodaiklimat.ru
ПОГОДА в Энергетике

Архив погоды в Энергетике (Оренбургская область, Россия)

Время
(UTC), дата
06 15.01
09 15.01
12 15.01
15 15.01
18 15.01
21 15.01
00 16.01
03 16.01
06 16.01
09 16.01
12 16.01
15 16.01
18 16.01
21 16.01
00 17.01
03 17.01
06 17.01
09 17.01
12 17.01
15 17.01
18 17.01
21 17.01
00 18.01
03 18.01
06 18.01
09 18.01
12 18.01
15 18.01
18 18.01
21 18.01
00 19.01
03 19.01
06 19.01
09 19.01
12 19.01
15 19.01
18 19.01
21 19.01
00 20.01
03 20.01
06 20.01
09 20.01
12 20.01
15 20.01
18 20.01
21 20.01
00 21.01
03 21.01
06 21.01
09 21.01
12 21.01
15 21.01
18 21.01
21 21.01
00 22.01
Ветер
(напр.,м/с)
Видим. Явления Облачность Т
(С)
Тd
(С)
f
(%)
Тe
(С)
Тes
(С)
Комфортность P
(гПа)
Po
(гПа)
Тmin
(С)
Tmax
(С)
R
(мм)
R24
(мм)
S
(см)
Ю 8-12
{12}
4200 м слаб. снег {метель} 10/0
[As trans]
-12.6 -14.5 86 -23 -23 987.7 954.3
Ю 8-12
{14}
1000 м сильн. снег {метель} 10/10 600 м
[Frnb Ns]
-6.9 -8.2 90 -16 -16 985.1 952.5
ЮЗ 8-13
{14}
30 км позёмок {снег, метель} 10/6 600 м
[Sc As trans]
-0.9 -2.1 92 -9 -9 984.2 952.4
ЮЗ 9-16
{18}
4000 м слаб. снег {метель} 10/10 630 м
[Frnb Ns]
-0.8 -2.6 88 -9 -9 986.0 954.1 -0.4 0.4
ЮЗ 7-12
{21}
4000 м позёмок {снег, метель} 10/10 630 м
[Frnb Ns]
-1.7 -4.6 81 -9 -9 988.3 956.2
Ю 5
{13}
4000 м слаб. снег {метель} 10/10 630 м
[Frnb Ns]
-2.5 -3.3 94 -9 -9 991.0 958.7
Ю 4 2000 м снег {метель} 10/10 600 м
[Frnb Ns]
-3.4 -4.1 95 -10 -10 990.3 958.0
ЮЗ 4 4000 м {снег} 10/0
[As op]
-4.1 -4.9 94 -11 -11 989.9 957.5 -4.1 2 7
З 6 3600 м снег {метель} 10/10 700 м
[Frnb Ns]
-5.2 -6.9 88 -13 -13 990.7 958.2 -5.2
З 8-14
{14}
30 км позёмок {снег, метель} 10/5 600 м
[Sc As trans]
-9.1 -12.4 77 -19 -19 992.7 959.6
З 8-13
{14}
30 км позёмок {снег, метель} 3/3 600 м
[Sc Ac lent]
-12.4 -15.8 76 -23 -23 997.6 963.9
ЮЗ 8-12
{15}
4000 м позёмок {метель} 8/0
[Ac trans]
-10.1 -12.7 81 -20 -20 1000.8 967.3 -4.1 0.0
ЮЗ 7-12
{14}
4000 м слаб. снег {метель} 10/0
[As trans]
-7.7 -9.8 85 -17 -17 1002.5 969.3
З 6
{14}
4000 м позёмок {снег, метель} 10/0
[As op]
-6.9 -8.9 86 -15 -15 1003.6 970.4
З 5 4000 м слаб. снег {метель} 10/10 800 м
[Frnb Ns]
-8.5 -11.3 80 -16 -16 1007.2 973.7
ЮЗ 5 4000 м {снег} 8/3 600 м
[Sc Ac trans]
-8.9 -12.1 78 -17 -17 1009.4 975.7 -10.1 0.0 6
Ю 4 4200 м слаб. снег {метель} 10/0
[As op]
-8.7 -11.6 79 -16 -15 1013.0 979.2
ЮЗ 4 35 км {снег, метель} 9/0
[Ac trans]
-7.3 -10.6 77 -14 -13 1013.6 980.0
ЮЗ 4 30 км {метель} 3/0
[Ac lent]
-8.5 -11.4 80 -15 -15 1015.5 981.7
ЮЗ 5 4000 м 4/0
[Ac trans]
-8.9 -10.7 87 -17 -17 1017.2 983.2 -6.7 0.0
ЮЗ 4 4000 м 10/0
[Cs]
-8.1 -9.8 88 -15 -15 1018.5 984.7
ЮЗ 5 4000 м 10/0
[Cs]
-7.4 -9.2 87 -15 -15 1019.1 985.3
ЮЗ 5 4000 м 9/0
[Ac trans]
-8.4 -10.3 86 -16 -16 1020.4 986.4
З 3 4000 м слаб. снег {метель} 10/0
[As trans]
-8.6 -10.8 84 -14 -14 1021.6 987.6 -9.8 0.0 6
ЮЗ 5 3600 м снег {метель} 10/0
[As op]
-7.5 -9.2 88 -15 -15 1022.4 988.4
ЮЗ 5 30 км позёмок {снег, метель} 9/3 600 м
[Sc Ac trans]
-7.6 -10.8 78 -15 -15 1023.3 989.3
Ю 4 30 км {снег, метель} 6/0
[Ac trans Ci fib]
-9.5 -12.1 81 -16 -16 1024.1 989.9
ЮЗ 3 4000 м 6/0
[Ac lent Ci fib]
-12.6 -14.3 87 -19 -19 1025.3 990.7 -6.7 0.0
Ю 3 4000 м 8/0
[Ac lent Ci fib]
-15.2 -16.8 88 -22 -22 1026.1 991.1
Ю 2 4000 м [диам. изморози 2 мм] 4/0
[Ci fib]
-16.5 -18.5 84 -22 -22 1027.0 991.8
Ю 2 4000 м [диам. изморози 4 мм] 10/0
[Cs]
-15.1 -17.0 85 -20 -20 1027.2 992.1
Ю 2 4000 м ледяные иглы {снег} [диам. изморози 6 мм] 9/0
[Ci fib]
-17.7 -19.8 84 -23 -23 1027.8 992.4 -18.4 0.0 6
ЮЗ 1 35 км ледяные иглы {снег} [диам. изморози 8 мм] 3/0
[Ci fib]
-16.2 -18.2 85 -19 -18 1028.2 993.0 -18.5
ЮЗ 3 40 км {снег} 6/0
[Ci fib]
-15.4 -17.9 81 -22 -21 1028.4 993.3
Ю 3 2000 м дымка {снег} 9/0
[Ci fib]
-16.3 -18.6 82 -23 -23 1028.9 993.6
Ю 1 4000 м ледяные иглы {снег} [диам. изморози 2 мм] 9/0
[Ci fib]
-17.6 -19.7 84 -20 -20 1029.9 994.4 -14.6 0.0
З 1 4000 м ледяные иглы {снег} [диам. изморози 3 мм] 9/0
[Ci fib]
-18.8 -21.1 82 -22 -22 1030.0 994.4
ЮЗ 2 4000 м {снег} [диам. изморози 4 мм] 9/0
[Ci fib]
-18.5 -20.7 83 -24 -24 1029.4 993.8
ЮЗ 2 4000 м {снег} [диам. изморози 5 мм] 10/0
[Cs]
-18.0 -20.3 82 -23 -23 1029.8 994.2
ЮВ 2 4000 м в посл. час снег [диам. изморози 6 мм] 10/0
[As trans]
-17.6 -19.5 85 -23 -23 1029.0 993.7 -19.1 0.0 6
Ю 1 3600 м слаб. снег [диам. изморози 6 мм] 10/0
[As trans]
-15.9 -18.0 84 -19 -18 1028.8 993.5
Ю 2 4200 м слаб. снег 10/0
[As trans]
-15.0 -17.4 82 -20 -19 1027.9 992.9
Ю 1 30 км в посл. час снег 10/0
[As op]
-15.4 -17.9 81 -18 -18 1027.4 992.3
ЮВ 1 4000 м 9/3 600 м
[Sc Ac trans Ci fib]
-17.7 -19.8 84 -21 -21 1027.2 991.8 -14.7 0.2
Ю 1 4000 м [диам. изморози 1 мм] 10/0
[Ac lent Cs]
-19.1 -21.1 84 -22 -22 1027.3 991.6
штиль 0 4000 м [диам. изморози 3 мм] 4/0
[Ac lent Ci fib]
-21.2 -23.5 82 -21 -21 1027.0 991.1
штиль 0 4000 м [диам. изморози 5 мм] ясно -23.4 -26.0 79 -23 -23 1027.5 991.2
ЮЗ 1 4000 м дымка [диам. изморози 5 мм] 10/0
[Cs]
-23.9 -26.7 78 -27 -27 1027.5 991.2 -24.4 7
штиль 0 35 км ледяные иглы {снег} [диам. изморози 5 мм] 9/0
[Ac lent Ci fib]
-20.3 -22.9 80 -20 -19 1027.4 991.6 -24.7
штиль 0 35 км {снег} 4/0
[Ci fib]
-15.7 -19.5 73 -16 -13 1026.7 991.6
В 1 30 км {снег} 4/0
[Ci fib]
-19.9 -23.2 75 -23 -23 1028.1 992.3
В 1 4000 м ясно -22.6 -25.1 80 -26 -26 1029.2 993.0 -14.9 0.0
СВ 1 4000 м 10/0
[Cs]
-20.8 -23.4 80 -24 -24 1029.5 993.6
штиль 0 4000 м 9/0
[Ci fib]
-21.0 -23.8 78 -21 -21 1030.4 994.4
штиль 0 4000 м ясно -23.4 -26.1 78 -23 -23 1031.1 994.7
Местоположение метеостанции Энергетик (Оренбургская область, Россия): широта 51.77 долгота 58.83 высота над уровнем моря 265 м.
В архиве по умолчанию представлена погода в Энергетике за последнюю неделю. Архивные данные за месяц целиком и за предыдущие месяцы, начиная с января 2011 года, Вы можете получить, выбрав интересующий диапазон дат из раскрывающегося списка и нажав кнопку "Найти!".
*Определитесь, кто Вы:
Внимание! Время в таблицах - всемирное. Для получения местного времени необходимо прибавить поправку, которая равна 5 ч.
Смотрите также архив погоды в соседних городах и на ближайших метеорологических станциях:
Партнеры нашего сайта:      
Пояснения к столбцам:
  • Ветер - указаны скорость ветра в м/с - средняя за 10 мин, порывы в срок и между сроками (в фигурных скобках) и направление, откуда дует ветер: С - северный,
  • СВ - северо-восточный, В - восточный, ЮВ - юго-восточный, Ю - южный, ЮЗ - юго-западный, З - западный, СЗ - северо-западный.
  • Видимость - горизонтальная дальность видимости в метрах или километрах. При видимости от 1 до 10 км при отсутствии осадков обычно наблюдается дымка, при ухудшении видимости до 1 км и менее - туман. В сухую погоду видимость может ухудшаться дымом, пылью или мглою.
  • Явления - указаны атмосферные явления, наблюдавшиеся в срок или в последний час перед сроком; фигурными скобками обозначены явления, наблюдавшиеся между сроками (за 1-3 часа до срока); квадратными скобками обозначены град или гололедные отложения с указанием их диаметра в мм.
  • Облачность - указаны через наклонную черту общая и нижняя облачность в баллах и высота нижней границы облаков в метрах; квадратными скобками обозначены формы облаков: Ci - перистые, Cs - перисто-слоистые, Cc - перисто-кучевые, Ac - высококучевые, As - высокослоистые, Sc - слоисто-кучевые, Ns - слоисто-дождевые, Cu - кучевые, Cb - кучево-дождевые. Подробнее классификацию облаков см. в Атласе облаков (PDF).
  • T - Температура воздуха - температура, измеренная на высоте 2 м над землей.
  • Td - Температура точки росы - температура, при понижении до которой содержащийся в воздухе водяной пар достигнет насыщения.
  • f - Относительная влажность воздуха - влажноcть воздуха, измеренная на высоте 2 м над землей.
  • Te - Эффективная температура - температура, которую ощущает одетый по сезону человек в тени. Характеристика душности погоды. При расчете учитывается влияние влажности воздуха и скорости ветра на теплоощущения человека.
  • Tes - Эффективная температура на солнце - температура, которую ощущает человек, с поправкой на солнечный нагрев. Характеристика знойности погоды. Зависит от высоты солнца над горизонтом, облачности и скорости ветра. Ночью, в пасмурную погоду, а также при ветре 12 м/с и более поправка равна нулю.
  • P - Атмосферное давление - приведенное к уровню моря атмосферное давление.
  • Po - Атмосферное давление - измеренное на уровне метеостанции атмосферное давление.
  • Tmin - Минимальная температура - минимум температуры воздуха на высоте 2 м над землей.
  • Tmax - Максимальная температура - максимум температуры воздуха на высоте 2 м над землей.
  • R - Количество осадков - Количество выпавших осадков за период времени, мм. При наведении курсора мыши на число - период времени, за который выпало указанное количество осадков.
  • R24 - Количество осадков - Количество выпавших осадков за 24 часа, мм.
  • S - Снежный покров - Высота снежного покрова, см. При наведении курсора мыши на число - состояние снежного покрова и степень покрытия местности в баллах.